Date String (YYYY-MM-DD hh:mm:ss) UTC,Instrument flags,Ambient pressure (hPa),Sample flow (lpm),Bypass flow (lpm),Sample temperature (°C),Ambient temperature (°C),ASC tube jacket temperature (°C),LED temperature (°C),Box temperature (°C),Sample RH (%),Span deviation,Mass concentration (μg/m³),Mass concentration (μg/m³),Mass concentration (μg/m³)
DateTimeUTC,F1_M11,P_M11,Q1_M11,Q2_M11,T1_M11,T2_M11,T3_M11,T4_M11,T5_M11,U1_M11,ZSPAN_M11,X0_M11,X2_M11,X1_M11
2022-01-04 10:00:00,,0817.5,5.01,0.00,22.4,23.1,00.0,31.3,24.3,07.1,0000.0,0000.69,0000.46,0000.39
2022-01-04 10:01:00,,0817.5,5.01,0.00,22.4,22.8,00.0,31.3,24.3,07.0,0000.0,0000.68,0000.46,0000.39
2022-01-04 10:02:00,,0817.4,4.98,0.00,22.4,22.5,00.0,31.3,24.2,07.1,0000.0,0000.70,0000.47,0000.39
2022-01-04 10:03:00,,0817.4,5.01,0.00,22.4,22.3,00.0,31.3,24.1,06.9,0000.0,0000.72,0000.47,0000.39
2022-01-04 10:04:00,,0817.4,4.99,0.00,22.3,22.1,00.0,31.3,23.9,06.8,0000.0,0000.75,0000.48,0000.39
2022-01-04 10:05:00,,0817.4,5.01,0.00,22.3,21.9,00.0,31.3,23.9,07.1,0000.0,0000.98,0000.51,0000.39
2022-01-04 10:06:00,,0817.4,5.00,0.00,22.3,21.8,00.0,31.3,23.9,06.9,0000.0,0001.25,0000.53,0000.38
2022-01-04 10:07:00,,0817.3,4.99,0.00,22.3,21.7,00.0,31.3,23.9,07.1,0000.0,0001.28,0000.54,0000.39
2022-01-04 10:08:00,,0817.3,5.00,0.00,22.2,21.6,00.0,31.3,23.8,07.3,0000.0,0001.32,0000.56,0000.38
2022-01-04 10:09:00,,0817.4,5.00,0.00,22.2,21.5,00.0,31.3,23.8,07.0,0000.0,0001.37,0000.58,0000.39
2022-01-04 10:10:00,,0817.4,4.99,0.00,22.2,21.5,00.0,31.3,23.8,07.0,0000.0,0001.40,0000.59,0000.40
2022-01-04 10:11:00,,0817.4,5.01,0.00,22.2,21.4,00.0,31.2,23.7,07.1,0000.0,0001.35,0000.58,0000.40
2022-01-04 10:12:00,,0817.4,4.99,0.00,22.1,21.4,00.0,31.2,23.7,07.1,0000.0,0001.37,0000.60,0000.41
2022-01-04 10:13:00,,0817.4,5.01,0.00,22.1,21.3,00.0,31.2,23.7,07.0,0000.0,0001.37,0000.61,0000.41
2022-01-04 10:14:00,,0817.3,5.00,0.00,22.1,21.2,00.0,31.2,23.6,06.8,0000.0,0001.41,0000.62,0000.40
2022-01-04 10:15:00,,0817.4,5.00,0.00,22.1,21.2,00.0,31.2,23.6,06.7,0000.0,0001.40,0000.62,0000.41
2022-01-04 10:16:00,,0817.3,5.01,0.00,22.0,21.2,00.0,31.2,23.6,06.8,0000.0,0001.26,0000.60,0000.40
2022-01-04 10:17:00,,0817.3,5.00,0.00,22.0,21.1,00.0,31.2,23.6,06.9,0000.0,0000.92,0000.58,0000.41
2022-01-04 10:18:00,,0817.3,5.00,0.00,22.0,21.1,00.0,31.1,23.5,06.8,0000.0,0000.94,0000.58,0000.41
2022-01-04 10:19:00,,0817.3,4.98,0.00,22.0,21.4,00.0,31.1,23.6,06.8,0000.0,0000.89,0000.56,0000.41
2022-01-04 10:20:00,,0817.3,5.01,0.00,22.1,22.2,00.0,31.2,23.9,06.5,0000.0,0001.72,0000.54,0000.41
2022-01-04 10:21:00,,0817.4,5.00,0.00,22.3,23.0,00.0,31.2,24.3,06.4,0000.0,0002.48,0000.55,0000.40
2022-01-04 10:22:00,,0817.3,5.00,0.00,22.4,23.0,00.0,31.3,24.3,06.5,0000.0,0002.49,0000.55,0000.41
2022-01-04 10:23:00,,0817.3,5.01,0.00,22.4,22.8,00.0,31.3,24.3,06.4,0000.0,0002.48,0000.54,0000.40
2022-01-04 10:24:00,,0817.2,5.00,0.00,22.4,22.5,00.0,31.3,24.2,06.4,0000.0,0002.61,0000.56,0000.40
2022-01-04 10:25:00,,0817.1,5.01,0.00,22.4,22.3,00.0,31.3,24.1,06.5,0000.0,0002.59,0000.55,0000.41
2022-01-04 10:26:00,,0817.2,5.01,0.00,22.4,22.1,00.0,31.3,24.0,06.4,0000.0,0002.58,0000.55,0000.41
2022-01-04 10:27:00,,0817.1,5.00,0.00,22.3,22.0,00.0,31.3,24.0,06.3,0000.0,0002.55,0000.54,0000.41
2022-01-04 10:28:00,,0817.1,5.01,0.00,22.3,21.8,00.0,31.3,24.0,06.4,0000.0,0002.55,0000.53,0000.40
2022-01-04 10:29:00,,0817.1,4.99,0.00,22.3,21.7,00.0,31.3,23.9,06.6,0000.0,0002.53,0000.52,0000.40
2022-01-04 10:30:00,,0817.2,5.01,0.00,22.3,21.7,00.0,31.3,23.8,06.2,0000.0,0002.52,0000.52,0000.40
2022-01-04 10:31:00,,0817.1,4.99,0.00,22.3,21.6,00.0,31.3,23.9,06.3,0000.0,0001.56,0000.52,0000.40
2022-01-04 10:32:00,,0817.2,4.99,0.00,22.2,21.6,00.0,31.3,23.8,06.5,0000.0,0000.91,0000.53,0000.40
2022-01-04 10:33:00,,0817.1,5.01,0.00,22.2,21.5,00.0,31.3,23.8,06.5,0000.0,0000.91,0000.53,0000.40
2022-01-04 10:34:00,,0817.1,5.01,0.00,22.2,21.5,00.0,31.3,23.8,06.6,0000.0,0000.85,0000.51,0000.40
2022-01-04 10:35:00,,0817.1,4.99,0.00,22.2,21.4,00.0,31.3,23.8,06.7,0000.0,0000.69,0000.48,0000.39
2022-01-04 10:36:00,,0817.1,4.99,0.00,22.2,21.3,00.0,31.3,23.7,06.6,0000.0,0000.65,0000.47,0000.39
2022-01-04 10:37:00,,0817.0,5.02,0.00,22.1,21.3,00.0,31.2,23.7,06.1,0000.0,0000.62,0000.45,0000.38
2022-01-04 10:38:00,,0817.0,4.99,0.00,22.1,21.2,00.0,31.2,23.6,06.0,0000.0,0000.59,0000.44,0000.37
2022-01-04 10:39:00,,0817.0,4.99,0.00,22.0,21.2,00.0,31.2,23.6,06.1,0000.0,0000.56,0000.42,0000.37
2022-01-04 10:40:00,,0817.0,5.00,0.00,22.0,21.1,00.0,31.2,23.5,06.1,0000.0,0000.52,0000.40,0000.36
2022-01-04 10:41:00,,0817.1,5.01,0.00,21.9,21.1,00.0,31.2,23.5,06.1,0000.0,0000.56,0000.41,0000.35
2022-01-04 10:42:00,,0817.1,5.00,0.00,21.9,21.1,00.0,31.1,23.4,06.1,0000.0,0000.56,0000.41,0000.35
2022-01-04 10:43:00,,0817.1,4.99,0.00,22.0,21.7,00.0,31.2,23.7,06.2,0000.0,0000.51,0000.39,0000.35
2022-01-04 10:44:00,,0817.1,5.00,0.00,22.1,22.7,00.0,31.2,24.0,06.7,0000.0,0000.45,0000.36,0000.34
2022-01-04 10:45:00,,0817.2,5.01,0.00,22.3,23.1,00.0,31.2,24.2,06.4,0000.0,0000.47,0000.37,0000.34
2022-01-04 10:46:00,,0817.1,5.00,0.00,22.3,22.8,00.0,31.2,24.2,06.3,0000.0,0000.52,0000.39,0000.34
2022-01-04 10:47:00,,0817.2,4.99,0.00,22.3,22.6,00.0,31.2,24.1,06.4,0000.0,0000.54,0000.40,0000.34
2022-01-04 10:48:00,,0817.2,5.02,0.00,22.3,22.4,00.0,31.3,24.0,06.3,0000.0,0000.56,0000.41,0000.34
2022-01-04 10:49:00,,0817.1,5.00,0.00,22.3,22.2,00.0,31.3,24.0,06.4,0000.0,0000.60,0000.43,0000.35
2022-01-04 10:50:00,,0817.1,5.00,0.00,22.3,22.0,00.0,31.3,24.0,06.4,0000.0,0000.63,0000.44,0000.36
2022-01-04 10:51:00,,0817.2,5.00,0.00,22.3,21.9,00.0,31.3,23.9,06.2,0000.0,0000.64,0000.45,0000.36
2022-01-04 10:52:00,,0817.2,5.01,0.00,22.2,21.8,00.0,31.3,23.9,06.2,0000.0,0000.61,0000.45,0000.37
2022-01-04 10:53:00,,0817.3,4.99,0.00,22.2,21.7,00.0,31.3,23.8,06.2,0000.0,0000.61,0000.45,0000.36
2022-01-04 10:54:00,,0817.3,5.02,0.00,22.1,21.6,00.0,31.2,23.8,06.4,0000.0,0000.61,0000.45,0000.36
2022-01-04 10:55:00,,0817.4,4.98,0.00,22.1,21.5,00.0,31.2,23.7,06.4,0000.0,0000.65,0000.46,0000.36
2022-01-04 10:56:00,,0817.4,5.00,0.00,22.1,21.5,00.0,31.2,23.7,06.2,0000.0,0000.66,0000.46,0000.35
2022-01-04 10:57:00,,0817.3,5.01,0.00,22.1,21.4,00.0,31.2,23.7,06.4,0000.0,0000.60,0000.44,0000.35
2022-01-04 10:58:00,,0817.4,4.99,0.00,22.1,21.4,00.0,31.2,23.7,06.2,0000.0,0000.58,0000.42,0000.34
2022-01-04 10:59:00,,0817.4,5.00,0.00,22.1,21.4,00.0,31.2,23.7,06.3,0000.0,0000.60,0000.43,0000.35
